Simultaneous Nadir Overpasses (SNOs) Predictions

Prediction of SNOs between GOES-15 and FY3D Satellite Orbit:

Table of predicted SNOs for the next 14.0 days since TLE Epoch: 2/14/2025
Index Date Time (GOES-15) GOES-15 Lat,Lon FY3D Lat,Lon Distance(km) Time Diff (sec)
1 02/15/2025 22:50:13 0.05, 61.41 0.11, 61.10 36.13 80
2 02/16/2025 22:28:48 0.05, 61.40 -0.92, 65.65 484.06 80
3 02/18/2025 10:53:21 -0.05, 61.50 -0.32, 60.41 124.97 80
4 02/19/2025 10:31:56 -0.05, 61.49 0.72, 64.96 394.94 80
5 02/20/2025 22:53:42 0.05, 61.38 0.42, 59.73 188.03 80
6 02/21/2025 22:37:36 0.06, 61.38 -0.62, 64.28 331.52 80
7 02/23/2025 10:59:30 -0.06, 61.48 -0.60, 59.04 278.45 80
8 02/24/2025 10:38:03 -0.07, 61.48 0.40, 63.60 240.72 80
9 02/25/2025 22:59:50 0.07, 61.38 0.75, 58.37 343.43 80
10 02/26/2025 22:43:43 0.07, 61.39 -0.25, 62.93 175.70 80
11 02/28/2025 11:05:36 -0.08, 61.49 -0.94, 57.68 434.45 80
